| time (UTC) | temp F | wind direction | speed MPH | gust MPH | rain 1hr in | rain 24hr in | rain mn in | humidity % | barometer mb |
| 20260901160833 | 92 | 231 | 2.0 | 4.0 | 0.00 | 0.00 | 0.00 | 60 | 1017.7 |
| 20260901160330 | 92 | 115 | 4.0 | 4.0 | 0.00 | 0.00 | 0.00 | 59 | 1017.6 |
| 20260901155829 | 91 | 221 | 2.0 | 4.0 | 0.00 | 0.00 | 0.00 | 58 | 1017.8 |
| 20260901155323 | 91 | 58 | 2.0 | 4.0 | 0.00 | 0.00 | 0.00 | 60 | 1017.6 |
| 20260901154821 | 90 | 227 | 0.0 | 3.0 | 0.00 | 0.00 | 0.00 | 63 | 1017.6 |
| 20260901154319 | 90 | 83 | 4.0 | 4.0 | 0.00 | 0.00 | 0.00 | 61 | 1017.9 |
| 20260901153814 | 90 | 173 | 0.0 | 3.0 | 0.00 | 0.00 | 0.00 | 61 | 1017.7 |
| 20260901153314 | 90 | 323 | 2.0 | 4.0 | 0.00 | 0.00 | 0.00 | 61 | 1017.9 |
| 20260901152813 | 90 | 97 | 2.0 | 2.0 | 0.00 | 0.00 | 0.00 | 61 | 1017.7 |
| 20260901152312 | 90 | 180 | 3.0 | 4.0 | 0.00 | 0.00 | 0.00 | 63 | 1017.5 |
| 20260901151808 | 89 | 137 | 2.0 | 2.0 | 0.00 | 0.00 | 0.00 | 65 | 1017.9 |
| 20260901151302 | 88 | 263 | 2.0 | 5.0 | 0.00 | 0.00 | 0.00 | 64 | 1017.9 |
| 20260901150801 | 88 | 56 | 2.0 | 4.0 | 0.00 | 0.00 | 0.00 | 67 | 1017.8 |
| 20260901150259 | 87 | 100 | 2.0 | 5.0 | 0.00 | 0.00 | 0.00 | 66 | 1017.7 |
| 20260901145758 | 87 | 241 | 0.0 | 5.0 | 0.00 | 0.00 | 0.00 | 67 | 1017.7 |
| 20260901145257 | 87 | 70 | 2.0 | 4.0 | 0.00 | 0.00 | 0.00 | 69 | 1017.6 |
| 20260901144753 | 88 | 262 | 1.0 | 2.0 | 0.00 | 0.00 | 0.00 | 67 | 1017.7 |
| 20260901144249 | 89 | 62 | 2.0 | 3.0 | 0.00 | 0.00 | 0.00 | 66 | 1017.8 |
| 20260901143744 | 89 | 302 | 0.0 | 4.0 | 0.00 | 0.00 | 0.00 | 68 | 1017.7 |
| 20260901143240 | 88 | 186 | 0.0 | 3.0 | 0.00 | 0.00 | 0.00 | 69 | 1017.5 |
| 20260901142736 | 86 | 352 | 2.0 | 2.0 | 0.00 | 0.00 | 0.00 | 70 | 1017.6 |
| 20260901142235 | 87 | 265 | 1.0 | 3.0 | 0.00 | 0.00 | 0.00 | 69 | 1017.6 |
| 20260901141731 | 88 | 248 | 0.0 | 4.0 | 0.00 | 0.00 | 0.00 | 69 | 1017.6 |
| 20260901141230 | 88 | 226 | 2.0 | 4.0 | 0.00 | 0.00 | 0.00 | 70 | 1017.6 |
| 20260901140729 | 88 | 274 | 0.0 | 5.0 | 0.00 | 0.00 | 0.00 | 72 | 1017.4 |
| 20260901140228 | 87 | 3 | 1.0 | 2.0 | 0.00 | 0.00 | 0.00 | 75 | 1017.2 |
| 20260901135723 | 86 | 132 | 0.0 | 2.0 | 0.00 | 0.00 | 0.00 | 79 | 1017.3 |
| 20260901135218 | 85 | 275 | 1.0 | 4.0 | 0.00 | 0.00 | 0.00 | 76 | 1017.3 |
| 20260901134714 | 86 | 63 | 1.0 | 3.0 | 0.00 | 0.00 | 0.00 | 75 | 1017.3 |
| 20260901134209 | 86 | 297 | 2.0 | 3.0 | 0.00 | 0.00 | 0.00 | 78 | 1017.4 |
| 20260901133708 | 86 | 164 | 1.0 | 4.0 | 0.00 | 0.00 | 0.00 | 75 | 1017.5 |
| 20260901133207 | 86 | 95 | 0.0 | 3.0 | 0.00 | 0.00 | 0.00 | 78 | 1017.3 |
| 20260901132706 | 86 | 282 | 1.0 | 4.0 | 0.00 | 0.00 | 0.00 | 78 | 1017.5 |
| 20260901132206 | 86 | 101 | 0.0 | 2.0 | 0.00 | 0.00 | 0.00 | 78 | 1017.2 |
| 20260901131701 | 86 | 127 | 1.0 | 2.0 | 0.00 | 0.00 | 0.00 | 78 | 1017.2 |
| 20260901131200 | 86 | 34 | 0.0 | 3.0 | 0.00 | 0.00 | 0.00 | 79 | 1017.3 |
| 20260901130655 | 86 | 293 | 0.0 | 1.0 | 0.00 | 0.00 | 0.00 | 81 | 1017.3 |
| 20260901130154 | 85 | 188 | 0.0 | 2.0 | 0.00 | 0.00 | 0.00 | 84 | 1017.4 |
| 20260901125653 | 85 | 61 | 0.0 | 2.0 | 0.00 | 0.00 | 0.00 | 86 | 1017.4 |
| 20260901125148 | 84 | 48 | 2.0 | 2.0 | 0.00 | 0.00 | 0.00 | 87 | 1017.3 |
| 20260901124643 | 83 | 65 | 0.0 | 3.0 | 0.00 | 0.00 | 0.00 | 90 | 1017.4 |
| 20260901124142 | 83 | 174 | 0.0 | 2.0 | 0.00 | 0.00 | 0.00 | 91 | 1017.3 |
| 20260901123637 | 81 | 253 | 0.0 | 2.0 | 0.00 | 0.00 | 0.00 | 95 | 1017.1 |
| 20260901123137 | 80 | 84 | 0.0 | 2.0 | 0.00 | 0.00 | 0.00 | 98 | 1017.3 |
| 20260901122636 | 80 | 262 | 0.0 | 0.0 | 0.00 | 0.00 | 0.00 | 99 | 1017.1 |
| 20260901122130 | 79 | 61 | 0.0 | 1.0 | 0.00 | 0.00 | 0.00 | 99 | 1017.0 |
| 20260901121625 | 78 | 318 | 0.0 | 1.0 | 0.00 | 0.00 | 0.00 | 99 | 1016.8 |
| 20260901121121 | 77 | 311 | 0.0 | 1.0 | 0.00 | 0.00 | 0.00 | 99 | 1016.8 |
| 20260901120620 | 77 | 294 | 0.0 | 2.0 | 0.00 | 0.00 | 0.00 | 99 | 1016.9 |
| 20260901120116 | 77 | 122 | 0.0 | 1.0 | 0.00 | 0.00 | 0.00 | 99 | 1016.8 |
| 20260901115611 | 77 | 3 | 0.0 | 0.0 | 0.00 | 0.00 | 0.00 | 99 | 1017.0 |
| 20260901115108 | 77 | 281 | 2.0 | 2.0 | 0.00 | 0.00 | 0.00 | 99 | 1016.8 |
| 20260901114604 | 76 | 337 | 0.0 | 0.0 | 0.00 | 0.00 | 0.00 | 99 | 1016.8 |
| 20260901114103 | 76 | 308 | 0.0 | 0.0 | 0.00 | 0.00 | 0.00 | 99 | 1016.6 |
| 20260901113601 | 76 | 299 | 0.0 | 0.0 | 0.00 | 0.00 | 0.00 | 99 | 1016.8 |
| 20260901113057 | 76 | 299 | 0.0 | 1.0 | 0.00 | 0.00 | 0.00 | 99 | 1016.8 |
| 20260901112557 | 76 | 230 | 0.0 | 0.0 | 0.00 | 0.00 | 0.00 | 99 | 1016.6 |
| 20260901112052 | 76 | 323 | 0.0 | 1.0 | 0.00 | 0.00 | 0.00 | 99 | 1016.6 |
| 20260901111550 | 76 | 233 | 0.0 | 2.0 | 0.00 | 0.00 | 0.00 | 99 | 1016.5 |
| 20260901111049 | 76 | 315 | 0.0 | 0.0 | 0.00 | 0.00 | 0.00 | 99 | 1016.3 |
| 20260901110545 | 76 | 315 | 0.0 | 0.0 | 0.00 | 0.00 | 0.00 | 99 | 1016.5 |
| 20260901110040 | 76 | 311 | 0.0 | 1.0 | 0.00 | 0.00 | 0.00 | 99 | 1016.5 |
| 20260901105537 | 76 | 313 | 0.0 | 1.0 | 0.00 | 0.00 | 0.00 | 99 | 1016.2 |
| 20260901105036 | 76 | 320 | 0.0 | 1.0 | 0.00 | 0.00 | 0.00 | 99 | 1016.2 |
| 20260901104533 | 76 | 301 | 0.0 | 0.0 | 0.00 | 0.00 | 0.00 | 99 | 1016.3 |
| 20260901104027 | 76 | 315 | 0.0 | 0.0 | 0.00 | 0.00 | 0.00 | 99 | 1016.2 |
| 20260901103522 | 76 | 288 | 0.0 | 0.0 | 0.00 | 0.00 | 0.00 | 99 | 1016.2 |
| 20260901103018 | 76 | 315 | 0.0 | 1.0 | 0.00 | 0.00 | 0.00 | 99 | 1016.1 |
| 20260901102517 | 76 | 319 | 0.0 | 1.0 | 0.00 | 0.00 | 0.00 | 99 | 1016.1 |
| 20260901102012 | 76 | 145 | 0.0 | 0.0 | 0.00 | 0.00 | 0.00 | 99 | 1015.9 |
| 20260901101508 | 76 | 269 | 0.0 | 0.0 | 0.00 | 0.00 | 0.00 | 99 | 1016.1 |
| 20260901101007 | 76 | 230 | 0.0 | 0.0 | 0.00 | 0.00 | 0.00 | 99 | 1015.9 |
| 20260901100502 | 76 | 315 | 0.0 | 0.0 | 0.00 | 0.00 | 0.00 | 99 | 1015.8 |
| 20260901100001 | 76 | 319 | 0.0 | 0.0 | 0.00 | 0.00 | 0.00 | 99 | 1016.1 |
| 20260901095500 | 76 | 331 | 0.0 | 1.0 | 0.00 | 0.00 | 0.00 | 99 | 1016.0 |
| 20260901094958 | 76 | 326 | 0.0 | 1.0 | 0.00 | 0.00 | 0.00 | 99 | 1015.7 |
| 20260901094453 | 76 | 337 | 0.0 | 0.0 | 0.00 | 0.00 | 0.00 | 99 | 1016.1 |
| 20260901093953 | 76 | 325 | 0.0 | 0.0 | 0.00 | 0.00 | 0.00 | 99 | 1016.1 |
| 20260901093453 | 76 | 307 | 0.0 | 1.0 | 0.00 | 0.00 | 0.00 | 99 | 1016.0 |
| 20260901092953 | 76 | 288 | 0.0 | 0.0 | 0.00 | 0.00 | 0.00 | 99 | 1015.9 |
| 20260901092449 | 76 | 288 | 0.0 | 0.0 | 0.00 | 0.00 | 0.00 | 99 | 1015.8 |
| 20260901091945 | 76 | 315 | 0.0 | 0.0 | 0.00 | 0.00 | 0.00 | 99 | 1015.9 |
| 20260901091440 | 76 | 291 | 0.0 | 0.0 | 0.00 | 0.00 | 0.00 | 99 | 1015.8 |
| 20260901090935 | 76 | 315 | 0.0 | 0.0 | 0.00 | 0.00 | 0.00 | 99 | 1015.6 |
| 20260901090434 | 76 | 315 | 0.0 | 0.0 | 0.00 | 0.00 | 0.00 | 99 | 1015.9 |
| 20260901085930 | 76 | 329 | 0.0 | 0.0 | 0.00 | 0.00 | 0.00 | 99 | 1015.8 |
| 20260901085426 | 76 | 304 | 0.0 | 0.0 | 0.00 | 0.00 | 0.00 | 99 | 1015.7 |
| 20260901084922 | 76 | 315 | 0.0 | 0.0 | 0.00 | 0.00 | 0.00 | 99 | 1015.9 |
| 20260901084418 | 76 | 315 | 0.0 | 1.0 | 0.00 | 0.00 | 0.00 | 99 | 1015.7 |
| 20260901083913 | 76 | 220 | 0.0 | 0.0 | 0.00 | 0.00 | 0.00 | 99 | 1015.9 |
| 20260901083408 | 75 | 149 | 0.0 | 0.0 | 0.00 | 0.00 | 0.00 | 99 | 1015.9 |
| 20260901082906 | 75 | 318 | 0.0 | 2.0 | 0.00 | 0.00 | 0.00 | 99 | 1015.7 |
| 20260901082401 | 75 | 312 | 0.0 | 1.0 | 0.00 | 0.00 | 0.00 | 99 | 1015.7 |
| 20260901081856 | 75 | 167 | 0.0 | 0.0 | 0.00 | 0.00 | 0.00 | 99 | 1015.7 |
| 20260901081352 | 75 | 319 | 0.0 | 0.0 | 0.00 | 0.00 | 0.00 | 98 | 1015.8 |
| 20260901080851 | 75 | 323 | 0.0 | 0.0 | 0.00 | 0.00 | 0.00 | 98 | 1015.8 |
| 20260901080346 | 75 | 239 | 0.0 | 0.0 | 0.00 | 0.00 | 0.00 | 98 | 1015.9 |
| 20260901075846 | 75 | 325 | 0.0 | 0.0 | 0.00 | 0.00 | 0.00 | 98 | 1015.8 |
| 20260901075341 | 75 | 337 | 0.0 | 0.0 | 0.00 | 0.00 | 0.00 | 98 | 1016.2 |
| 20260901074836 | 75 | 325 | 0.0 | 0.0 | 0.00 | 0.00 | 0.00 | 98 | 1016.0 |
| 20260901074330 | 75 | 44 | 0.0 | 0.0 | 0.00 | 0.00 | 0.00 | 98 | 1015.8 |
| 20260901073826 | 75 | 7 | 0.0 | 0.0 | 0.00 | 0.00 | 0.00 | 98 | 1015.9 |
| 20260901073321 | 75 | 311 | 0.0 | 0.0 | 0.00 | 0.00 | 0.00 | 98 | 1015.9 |
| 20260901072817 | 75 | 294 | 0.0 | 0.0 | 0.00 | 0.00 | 0.00 | 98 | 1015.9 |
| 20260901072317 | 75 | 297 | 0.0 | 0.0 | 0.00 | 0.00 | 0.00 | 98 | 1016.2 |
| 20260901071813 | 75 | 329 | 0.0 | 0.0 | 0.00 | 0.00 | 0.00 | 98 | 1016.1 |
| 20260901071311 | 75 | 30 | 0.0 | 0.0 | 0.00 | 0.00 | 0.00 | 98 | 1016.0 |
| 20260901070810 | 75 | 297 | 0.0 | 0.0 | 0.00 | 0.00 | 0.00 | 98 | 1016.1 |
| 20260901070305 | 75 | 297 | 0.0 | 0.0 | 0.00 | 0.00 | 0.00 | 98 | 1016.2 |
| 20260901065805 | 75 | 312 | 0.0 | 1.0 | 0.00 | 0.00 | 0.00 | 98 | 1016.0 |
| 20260901065300 | 75 | 341 | 0.0 | 0.0 | 0.00 | 0.00 | 0.00 | 98 | 1016.2 |
| 20260901064756 | 75 | 341 | 0.0 | 0.0 | 0.00 | 0.00 | 0.00 | 98 | 1016.1 |
| 20260901064252 | 75 | 312 | 0.0 | 0.0 | 0.00 | 0.00 | 0.00 | 98 | 1016.3 |
| 20260901063749 | 75 | 57 | 0.0 | 0.0 | 0.00 | 0.00 | 0.00 | 98 | 1016.4 |
| 20260901063245 | 75 | 311 | 0.0 | 0.0 | 0.00 | 0.00 | 0.00 | 98 | 1016.3 |
| 20260901062741 | 75 | 311 | 0.0 | 0.0 | 0.00 | 0.00 | 0.00 | 98 | 1016.4 |
| 20260901062237 | 75 | 293 | 0.0 | 0.0 | 0.00 | 0.00 | 0.00 | 98 | 1016.7 |
| 20260901061733 | 75 | 299 | 0.0 | 0.0 | 0.00 | 0.00 | 0.00 | 98 | 1016.8 |
| 20260901061232 | 76 | 268 | 0.0 | 0.0 | 0.00 | 0.00 | 0.00 | 98 | 1016.7 |
| 20260901060727 | 76 | 294 | 0.0 | 1.0 | 0.00 | 0.00 | 0.00 | 98 | 1017.0 |
| 20260901060223 | 76 | 299 | 1.0 | 1.0 | 0.00 | 0.00 | 0.00 | 98 | 1016.9 |
| 20260901055718 | 76 | 298 | 0.0 | 1.0 | 0.00 | 0.00 | 0.00 | 98 | 1017.0 |
| 20260901055214 | 76 | 319 | 0.0 | 1.0 | 0.00 | 0.00 | 0.00 | 98 | 1017.3 |
| 20260901054711 | 76 | 311 | 0.0 | 1.0 | 0.00 | 0.00 | 0.00 | 98 | 1017.2 |
| 20260901054208 | 76 | 311 | 0.0 | 1.0 | 0.00 | 0.00 | 0.00 | 98 | 1017.1 |
| 20260901053703 | 76 | 328 | 0.0 | 1.0 | 0.00 | 0.00 | 0.00 | 98 | 1017.3 |
| 20260901053158 | 76 | 308 | 0.0 | 1.0 | 0.00 | 0.00 | 0.00 | 98 | 1017.1 |
| 20260901052654 | 76 | 319 | 0.0 | 0.0 | 0.00 | 0.00 | 0.00 | 98 | 1017.2 |
| 20260901052149 | 76 | 319 | 0.0 | 0.0 | 0.00 | 0.00 | 0.00 | 98 | 1017.2 |
| 20260901051648 | 76 | 287 | 0.0 | 1.0 | 0.00 | 0.00 | 0.00 | 98 | 1017.4 |
| 20260901051148 | 76 | 279 | 1.0 | 1.0 | 0.00 | 0.00 | 0.00 | 97 | 1017.4 |
| 20260901050643 | 76 | 287 | 0.0 | 1.0 | 0.00 | 0.00 | 0.00 | 97 | 1017.5 |
| 20260901050138 | 76 | 315 | 0.0 | 0.0 | 0.00 | 0.00 | 0.00 | 97 | 1017.5 |
| 20260901045638 | 76 | 303 | 0.0 | 1.0 | 0.00 | 0.00 | 0.00 | 97 | 1017.6 |
| 20260901045133 | 76 | 328 | 0.0 | 0.0 | 0.00 | 0.00 | 0.00 | 97 | 1017.6 |
| 20260901044628 | 76 | 300 | 0.0 | 0.0 | 0.00 | 0.00 | 0.00 | 97 | 1017.8 |
| 20260901044125 | 76 | 303 | 0.0 | 1.0 | 0.00 | 0.00 | 0.00 | 97 | 1017.6 |
| 20260901043620 | 76 | 312 | 0.0 | 1.0 | 0.00 | 0.00 | 0.00 | 97 | 1017.8 |
| 20260901043116 | 76 | 328 | 0.0 | 0.0 | 0.00 | 0.00 | 0.00 | 96 | 1017.7 |
| 20260901042614 | 76 | 303 | 0.0 | 1.0 | 0.00 | 0.00 | 0.00 | 96 | 1017.6 |
| 20260901042110 | 76 | 328 | 0.0 | 1.0 | 0.00 | 0.00 | 0.00 | 96 | 1017.6 |
| 20260901041606 | 76 | 308 | 0.0 | 2.0 | 0.00 | 0.00 | 0.00 | 96 | 1017.5 |
| 20260901041100 | 76 | 351 | 0.0 | 2.0 | 0.00 | 0.00 | 0.00 | 97 | 1017.5 |
| 20260901040600 | 77 | 289 | 2.0 | 2.0 | 0.00 | 0.00 | 0.00 | 97 | 1017.8 |
| 20260901040054 | 77 | 297 | 0.0 | 0.0 | 0.00 | 0.09 | 0.09 | 97 | 1017.4 |
| 20260901035552 | 77 | 305 | 0.0 | 2.0 | 0.00 | 0.09 | 0.09 | 97 | 1017.5 |
| 20260901035051 | 77 | 315 | 0.0 | 1.0 | 0.02 | 0.09 | 0.09 | 97 | 1017.4 |
| 20260901034551 | 77 | 289 | 1.0 | 1.0 | 0.02 | 0.09 | 0.09 | 97 | 1017.4 |
| 20260901034051 | 77 | 238 | 0.0 | 0.0 | 0.00 | 0.08 | 0.08 | 97 | 1017.6 |
| 20260901033550 | 77 | 308 | 0.0 | 1.0 | 0.00 | 0.08 | 0.08 | 97 | 1017.6 |
| 20260901033045 | 77 | 337 | 0.0 | 2.0 | 0.00 | 0.08 | 0.08 | 97 | 1017.4 |
| 20260901032544 | 77 | 311 | 0.0 | 1.0 | 0.00 | 0.08 | 0.08 | 97 | 1017.6 |
| 20260901032039 | 77 | 315 | 0.0 | 0.0 | 0.00 | 0.08 | 0.08 | 97 | 1017.6 |
| 20260901031534 | 77 | 125 | 0.0 | 1.0 | 0.00 | 0.08 | 0.08 | 97 | 1017.6 |
| 20260901031030 | 77 | 266 | 0.0 | 1.0 | 0.00 | 0.08 | 0.08 | 97 | 1017.8 |
| 20260901030530 | 78 | 319 | 0.0 | 0.0 | 0.00 | 0.08 | 0.08 | 97 | 1017.8 |
| 20260901030031 | 78 | 293 | 0.0 | 1.0 | 0.00 | 0.08 | 0.08 | 97 | 1017.9 |
| 20260901025525 | 78 | 277 | 0.0 | 1.0 | 0.00 | 0.08 | 0.08 | 97 | 1017.9 |
| 20260901025024 | 78 | 308 | 0.0 | 1.0 | 0.00 | 0.08 | 0.08 | 97 | 1017.8 |
| 20260901024519 | 78 | 327 | 0.0 | 0.0 | 0.00 | 0.08 | 0.08 | 97 | 1017.7 |
| 20260901024018 | 78 | 323 | 0.0 | 1.0 | 0.00 | 0.08 | 0.08 | 97 | 1017.7 |
| 20260901023512 | 78 | 315 | 0.0 | 0.0 | 0.00 | 0.08 | 0.08 | 97 | 1017.8 |
| 20260901023008 | 78 | 288 | 0.0 | 0.0 | 0.00 | 0.08 | 0.08 | 97 | 1017.6 |
| 20260901022504 | 78 | 277 | 0.0 | 0.0 | 0.00 | 0.08 | 0.08 | 97 | 1017.9 |
| 20260901022003 | 78 | 319 | 0.0 | 0.0 | 0.00 | 0.08 | 0.08 | 97 | 1017.5 |
| 20260901021459 | 78 | 299 | 0.0 | 0.0 | 0.00 | 0.08 | 0.08 | 97 | 1017.6 |
| 20260901020954 | 78 | 293 | 0.0 | 1.0 | 0.00 | 0.08 | 0.08 | 97 | 1017.7 |
| 20260901020450 | 78 | 289 | 1.0 | 1.0 | 0.00 | 0.08 | 0.08 | 96 | 1017.6 |
| 20260901015948 | 78 | 317 | 1.0 | 1.0 | 0.00 | 0.08 | 0.08 | 96 | 1017.5 |
| 20260901015445 | 78 | 288 | 0.0 | 0.0 | 0.00 | 0.08 | 0.08 | 96 | 1017.3 |
| 20260901014945 | 78 | 240 | 0.0 | 1.0 | 0.00 | 0.08 | 0.08 | 96 | 1017.4 |
| 20260901014441 | 78 | 300 | 0.0 | 1.0 | 0.00 | 0.08 | 0.08 | 96 | 1017.3 |
| 20260901013936 | 78 | 324 | 1.0 | 1.0 | 0.00 | 0.08 | 0.08 | 96 | 1017.0 |
| 20260901013432 | 78 | 289 | 0.0 | 1.0 | 0.00 | 0.08 | 0.08 | 96 | 1017.4 |
| 20260901012927 | 78 | 280 | 0.0 | 1.0 | 0.00 | 0.08 | 0.08 | 96 | 1017.1 |
| 20260901012422 | 78 | 324 | 1.0 | 1.0 | 0.00 | 0.08 | 0.08 | 96 | 1016.9 |
| 20260901011917 | 78 | 330 | 0.0 | 0.0 | 0.00 | 0.08 | 0.08 | 96 | 1016.9 |
| 20260901011414 | 78 | 304 | 0.0 | 1.0 | 0.00 | 0.08 | 0.08 | 96 | 1016.8 |
| 20260901010911 | 78 | 308 | 0.0 | 1.0 | 0.00 | 0.08 | 0.08 | 96 | 1016.9 |
| 20260901010407 | 78 | 315 | 0.0 | 1.0 | 0.00 | 0.08 | 0.08 | 95 | 1017.2 |
| 20260901005906 | 78 | 294 | 0.0 | 1.0 | 0.00 | 0.08 | 0.08 | 95 | 1016.9 |
| 20260901005401 | 78 | 320 | 0.0 | 0.0 | 0.02 | 0.08 | 0.08 | 95 | 1017.0 |
| 20260901004856 | 78 | 305 | 0.0 | 0.0 | 0.02 | 0.08 | 0.08 | 95 | 1016.8 |
| 20260901004355 | 78 | 305 | 0.0 | 0.0 | 0.00 | 0.08 | 0.08 | 95 | 1017.0 |
| 20260901003850 | 78 | 301 | 0.0 | 0.0 | 0.02 | 0.08 | 0.08 | 95 | 1016.6 |
| 20260901003345 | 78 | 297 | 0.0 | 1.0 | 0.02 | 0.08 | 0.08 | 94 | 1016.9 |
| 20260901002843 | 78 | 318 | 0.0 | 0.0 | 0.02 | 0.07 | 0.07 | 94 | 1016.6 |
| 20260901002343 | 78 | 335 | 0.0 | 0.0 | 0.02 | 0.07 | 0.07 | 94 | 1016.5 |
| 20260901001843 | 78 | 310 | 1.0 | 1.0 | 0.00 | 0.07 | 0.07 | 94 | 1016.9 |
| 20260901001339 | 78 | 279 | 0.0 | 1.0 | 0.02 | 0.07 | 0.07 | 93 | 1016.6 |
| 20260901000835 | 78 | 239 | 0.0 | 1.0 | 0.02 | 0.07 | 0.07 | 94 | 1016.8 |
| 20260901000330 | 78 | 277 | 0.0 | 0.0 | 0.00 | 0.07 | 0.07 | 93 | 1016.4 |
| 20260831235828 | 78 | 257 | 0.0 | 0.0 | 0.00 | 0.07 | 0.07 | 93 | 1016.7 |
| 20260831235324 | 78 | 304 | 0.0 | 0.0 | 0.00 | 0.07 | 0.07 | 92 | 1016.4 |
| 20260831234824 | 78 | 333 | 1.0 | 1.0 | 0.00 | 0.07 | 0.07 | 92 | 1016.8 |
| 20260831234319 | 78 | 264 | 0.0 | 1.0 | 0.00 | 0.07 | 0.07 | 92 | 1016.5 |
| 20260831233814 | 79 | 287 | 0.0 | 1.0 | 0.00 | 0.07 | 0.07 | 92 | 1016.3 |
| 20260831233309 | 79 | 311 | 0.0 | 1.0 | 0.02 | 0.07 | 0.07 | 93 | 1016.4 |
| 20260831232804 | 79 | 124 | 0.0 | 0.0 | 0.02 | 0.07 | 0.07 | 94 | 1016.5 |
| 20260831232301 | 79 | 301 | 0.0 | 0.0 | 0.00 | 0.06 | 0.06 | 94 | 1016.5 |
| 20260831231756 | 79 | 331 | 0.0 | 1.0 | 0.02 | 0.06 | 0.06 | 93 | 1016.5 |
| 20260831231253 | 79 | 303 | 0.0 | 0.0 | 0.02 | 0.06 | 0.06 | 93 | 1016.6 |
| 20260831230748 | 78 | 277 | 0.0 | 0.0 | 0.00 | 0.06 | 0.06 | 92 | 1016.7 |
| 20260831230242 | 78 | 294 | 0.0 | 2.0 | 0.00 | 0.06 | 0.06 | 92 | 1016.6 |
| 20260831225742 | 78 | 306 | 1.0 | 2.0 | 0.00 | 0.06 | 0.06 | 92 | 1016.3 |
| 20260831225237 | 78 | 299 | 0.0 | 1.0 | 0.00 | 0.06 | 0.06 | 92 | 1016.3 |
| 20260831224732 | 78 | 109 | 0.0 | 2.0 | 0.00 | 0.06 | 0.06 | 92 | 1016.4 |
| 20260831224228 | 78 | 214 | 0.0 | 0.0 | 0.00 | 0.06 | 0.06 | 92 | 1016.6 |
| 20260831223723 | 78 | 96 | 0.0 | 1.0 | 0.00 | 0.06 | 0.06 | 92 | 1016.6 |
| 20260831223219 | 78 | 6 | 0.0 | 1.0 | 0.00 | 0.06 | 0.06 | 90 | 1016.7 |
| 20260831222715 | 78 | 322 | 0.0 | 2.0 | 0.00 | 0.06 | 0.06 | 91 | 1016.5 |
| 20260831222211 | 78 | 266 | 2.0 | 2.0 | 0.00 | 0.06 | 0.06 | 91 | 1016.6 |
| 20260831221706 | 78 | 269 | 0.0 | 1.0 | 0.02 | 0.06 | 0.06 | 92 | 1016.6 |
| 20260831221201 | 78 | 132 | 0.0 | 0.0 | 0.02 | 0.06 | 0.06 | 91 | 1016.5 |
| 20260831220655 | 77 | 132 | 0.0 | 0.0 | 0.02 | 0.06 | 0.06 | 92 | 1016.7 |
| 20260831220151 | 77 | 192 | 0.0 | 0.0 | 0.02 | 0.06 | 0.06 | 91 | 1016.8 |
| 20260831215646 | 77 | 169 | 0.0 | 1.0 | 0.00 | 0.05 | 0.05 | 90 | 1017.0 |
| 20260831215142 | 77 | 255 | 1.0 | 2.0 | 0.02 | 0.05 | 0.05 | 89 | 1017.1 |
| 20260831214639 | 77 | 267 | 2.0 | 3.0 | 0.02 | 0.05 | 0.05 | 88 | 1017.5 |
| 20260831214135 | 77 | 318 | 0.0 | 2.0 | 0.02 | 0.05 | 0.05 | 88 | 1017.5 |
| 20260831213631 | 77 | 267 | 1.0 | 4.0 | 0.02 | 0.04 | 0.04 | 87 | 1017.4 |
| 20260831213126 | 78 | 286 | 5.0 | 5.0 | 0.05 | 0.04 | 0.04 | 85 | 1017.5 |
| 20260831212622 | 79 | 272 | 2.0 | 4.0 | 0.05 | 0.04 | 0.04 | 86 | 1017.6 |
| 20260831212119 | 79 | 289 | 2.0 | 4.0 | 0.07 | 0.03 | 0.03 | 88 | 1017.4 |
| 20260831211618 | 80 | 290 | 4.0 | 9.0 | 0.07 | 0.03 | 0.03 | 86 | 1017.2 |
| 20260831211118 | 81 | 285 | 2.0 | 3.0 | 0.05 | 0.02 | 0.02 | 86 | 1017.2 |
| 20260831210612 | 82 | 276 | 2.0 | 5.0 | 0.05 | 0.02 | 0.02 | 85 | 1017.0 |
| 20260831210109 | 82 | 275 | 1.0 | 2.0 | 0.02 | 0.01 | 0.01 | 83 | 1017.3 |
| 20260831205608 | 82 | 331 | 0.0 | 1.0 | 0.00 | 0.01 | 0.01 | 83 | 1017.0 |
| 20260831205105 | 82 | 231 | 1.0 | 2.0 | 0.00 | 0.01 | 0.01 | 84 | 1017.2 |
| 20260831204604 | 82 | 238 | 1.0 | 4.0 | 0.00 | 0.01 | 0.01 | 82 | 1016.9 |
| 20260831204103 | 81 | 210 | 0.0 | 6.0 | 0.00 | 0.01 | 0.01 | 82 | 1016.8 |
| 20260831203602 | 82 | 145 | 1.0 | 2.0 | 0.00 | 0.01 | 0.01 | 83 | 1017.1 |
| 20260831203102 | 82 | 135 | 0.0 | 2.0 | 0.00 | 0.01 | 0.01 | 83 | 1016.9 |
| 20260831202602 | 82 | 124 | 0.0 | 6.0 | 0.00 | 0.01 | 0.01 | 81 | 1016.8 |
| 20260831202101 | 82 | 239 | 4.0 | 4.0 | 0.00 | 0.01 | 0.01 | 81 | 1016.9 |
| 20260831201600 | 83 | 218 | 1.0 | 3.0 | 0.00 | 0.01 | 0.01 | 82 | 1016.8 |
| 20260831201055 | 82 | 162 | 1.0 | 4.0 | 0.00 | 0.01 | 0.01 | 82 | 1016.8 |
| 20260831200551 | 82 | 216 | 4.0 | 5.0 | 0.00 | 0.01 | 0.01 | 82 | 1017.0 |
| 20260831200051 | 82 | 193 | 2.0 | 5.0 | 0.00 | 0.01 | 0.01 | 81 | 1017.0 |
| 20260831195547 | 83 | 222 | 2.0 | 3.0 | 0.00 | 0.01 | 0.01 | 81 | 1016.8 |
| 20260831195042 | 83 | 230 | 2.0 | 2.0 | 0.00 | 0.01 | 0.01 | 82 | 1016.9 |
| 20260831194537 | 82 | 222 | 1.0 | 3.0 | 0.00 | 0.01 | 0.01 | 81 | 1016.6 |
| 20260831194032 | 82 | 212 | 3.0 | 5.0 | 0.00 | 0.01 | 0.01 | 80 | 1016.8 |
| 20260831193527 | 83 | 237 | 1.0 | 6.0 | 0.00 | 0.01 | 0.01 | 80 | 1017.0 |
| 20260831193022 | 84 | 212 | 4.0 | 5.0 | 0.00 | 0.01 | 0.01 | 80 | 1017.2 |
| 20260831192517 | 84 | 146 | 4.0 | 4.0 | 0.00 | 0.01 | 0.01 | 78 | 1017.0 |
| 20260831192013 | 84 | 160 | 1.0 | 5.0 | 0.00 | 0.01 | 0.01 | 79 | 1017.0 |
| 20260831191509 | 85 | 174 | 1.0 | 2.0 | 0.00 | 0.01 | 0.01 | 76 | 1016.8 |
| 20260831191004 | 84 | 120 | 2.0 | 5.0 | 0.02 | 0.01 | 0.01 | 75 | 1017.1 |
| 20260831190500 | 85 | 149 | 1.0 | 5.0 | 0.02 | 0.01 | 0.01 | 75 | 1017.0 |
| 20260831185958 | 85 | 144 | 2.0 | 4.0 | 0.00 | 0.00 | 0.00 | 73 | 1016.9 |
| 20260831185454 | 85 | 67 | 2.0 | 5.0 | 0.00 | 0.00 | 0.00 | 71 | 1017.2 |
| 20260831184954 | 85 | 123 | 4.0 | 7.0 | 0.00 | 0.00 | 0.00 | 70 | 1017.1 |
| 20260831184449 | 86 | 169 | 1.0 | 4.0 | 0.00 | 0.00 | 0.00 | 70 | 1017.2 |
| 20260831183944 | 86 | 163 | 2.0 | 5.0 | 0.00 | 0.00 | 0.00 | 69 | 1017.1 |
| 20260831183443 | 87 | 118 | 4.0 | 7.0 | 0.00 | 0.00 | 0.00 | 66 | 1017.3 |
| 20260831182943 | 87 | 149 | 5.0 | 9.0 | 0.00 | 0.00 | 0.00 | 67 | 1017.6 |
| 20260831182438 | 89 | 136 | 2.0 | 6.0 | 0.00 | 0.00 | 0.00 | 66 | 1017.3 |
| 20260831181933 | 89 | 192 | 3.0 | 6.0 | 0.00 | 0.00 | 0.00 | 68 | 1017.0 |
| 20260831181429 | 88 | 186 | 2.0 | 5.0 | 0.00 | 0.00 | 0.00 | 68 | 1016.9 |
| 20260831180924 | 88 | 111 | 7.0 | 11.0 | 0.00 | 0.00 | 0.00 | 66 | 1017.0 |
| 20260831180423 | 89 | 222 | 2.0 | 5.0 | 0.00 | 0.00 | 0.00 | 64 | 1017.1 |
| 20260831175923 | 88 | 138 | 1.0 | 6.0 | 0.00 | 0.00 | 0.00 | 65 | 1017.1 |
| 20260831175420 | 89 | 111 | 3.0 | 6.0 | 0.00 | 0.00 | 0.00 | 66 | 1017.3 |
| 20260831174915 | 89 | 166 | 3.0 | 7.0 | 0.00 | 0.00 | 0.00 | 64 | 1017.0 |
| 20260831174411 | 88 | 316 | 3.0 | 3.0 | 0.00 | 0.00 | 0.00 | 69 | 1017.1 |
| 20260831173910 | 88 | 66 | 3.0 | 7.0 | 0.00 | 0.00 | 0.00 | 68 | 1017.1 |
| 20260831173409 | 86 | 179 | 2.0 | 7.0 | 0.00 | 0.00 | 0.00 | 70 | 1017.5 |
| 20260831172905 | 85 | 12 | 3.0 | 5.0 | 0.00 | 0.00 | 0.00 | 68 | 1017.3 |
| 20260831172400 | 85 | 32 | 3.0 | 8.0 | 0.00 | 0.00 | 0.00 | 68 | 1017.3 |
| 20260831171900 | 86 | 136 | 0.0 | 6.0 | 0.00 | 0.00 | 0.00 | 65 | 1017.4 |
| 20260831171356 | 88 | 166 | 2.0 | 5.0 | 0.00 | 0.00 | 0.00 | 62 | 1017.7 |
| 20260831170853 | 92 | 69 | 4.0 | 7.0 | 0.00 | 0.00 | 0.00 | 57 | 1017.6 |
| 20260831170349 | 92 | 72 | 1.0 | 4.0 | 0.00 | 0.00 | 0.00 | 55 | 1017.5 |
| 20260831165845 | 91 | 64 | 0.0 | 5.0 | 0.00 | 0.00 | 0.00 | 58 | 1017.6 |
| 20260831165341 | 91 | 296 | 1.0 | 3.0 | 0.00 | 0.00 | 0.00 | 59 | 1017.9 |
| 20260831164837 | 91 | 49 | 0.0 | 2.0 | 0.00 | 0.00 | 0.00 | 59 | 1017.9 |
| 20260831164333 | 92 | 197 | 0.0 | 3.0 | 0.00 | 0.00 | 0.00 | 60 | 1017.6 |
| 20260831163828 | 93 | 292 | 2.0 | 3.0 | 0.00 | 0.00 | 0.00 | 58 | 1017.8 |
| 20260831163324 | 92 | 198 | 2.0 | 4.0 | 0.00 | 0.00 | 0.00 | 60 | 1018.0 |
| 20260831162822 | 91 | 51 | 2.0 | 2.0 | 0.00 | 0.00 | 0.00 | 59 | 1017.9 |
| 20260831162318 | 90 | 148 | 1.0 | 2.0 | 0.00 | 0.00 | 0.00 | 59 | 1017.9 |
| 20260831161816 | 91 | 264 | 2.0 | 3.0 | 0.00 | 0.00 | 0.00 | 60 | 1018.0 |
| 20260831161313 | 93 | 260 | 2.0 | 2.0 | 0.00 | 0.00 | 0.00 | 57 | 1018.2 |